Powrót do katalogu

ONEWEB-0639

AktywnyŁącznośćPO
NORAD 55803·PAYLOAD·🇬🇧 United Kingdom

Wystrzelony Mar 9, 2023 z Cape Canaveral Space Force Station

Loading…

Następne Przeloty (najbliższe 24 godziny)

TLE

ŚwieżeSource: CelesTrak SupGP

Epoka: Sep 14, 2026, 07:00 UTC

1 55803C 23029H   26257.29218009 -.00003345  00000+0 -83660-2 0  2578
2 55803  87.9103 287.2240 0002301  63.4441  50.1386 13.19727378    16

Śledź ONEWEB-0639 w czasie rzeczywistym z AllMySat

Download on the App Store